Index of /20260410/WXO-DD/model_rdps/10km/12/027
Name Last modified Size Description
Parent Directory -
20260410T12Z_MSC_RDPS_AbsoluteVorticity_IsbL-0250_RLatLon0.09_PT027H.grib2 2026-04-10 14:54 594K
20260410T12Z_MSC_RDPS_AbsoluteVorticity_IsbL-0500_RLatLon0.09_PT027H.grib2 2026-04-10 14:54 556K
20260410T12Z_MSC_RDPS_AbsoluteVorticity_IsbL-0700_RLatLon0.09_PT027H.grib2 2026-04-10 14:54 621K
20260410T12Z_MSC_RDPS_AbsoluteVorticity_IsbL-0850_RLatLon0.09_PT027H.grib2 2026-04-10 14:54 792K
20260410T12Z_MSC_RDPS_AirTemp_AGL-120m_RLatLon0.09_PT027H.grib2 2026-04-10 14:54 388K
20260410T12Z_MSC_RDPS_AirTemp_AGL-2m_RLatLon0.09_PT027H.grib2 2026-04-10 14:54 641K
20260410T12Z_MSC_RDPS_AirTemp_AGL-40m_RLatLon0.09_PT027H.grib2 2026-04-10 14:54 416K
20260410T12Z_MSC_RDPS_AirTemp_AGL-80m_RLatLon0.09_PT027H.grib2 2026-04-10 14:54 411K
20260410T12Z_MSC_RDPS_AirTemp_IsbL-0001_RLatLon0.09_PT027H.grib2 2026-04-10 14:54 317K
20260410T12Z_MSC_RDPS_AirTemp_IsbL-0005_RLatLon0.09_PT027H.grib2 2026-04-10 14:54 260K
20260410T12Z_MSC_RDPS_AirTemp_IsbL-0010_RLatLon0.09_PT027H.grib2 2026-04-10 14:54 352K
20260410T12Z_MSC_RDPS_AirTemp_IsbL-0020_RLatLon0.09_PT027H.grib2 2026-04-10 14:54 372K
20260410T12Z_MSC_RDPS_AirTemp_IsbL-0030_RLatLon0.09_PT027H.grib2 2026-04-10 14:54 394K
20260410T12Z_MSC_RDPS_AirTemp_IsbL-0050_RLatLon0.09_PT027H.grib2 2026-04-10 14:54 331K
20260410T12Z_MSC_RDPS_AirTemp_IsbL-0100_RLatLon0.09_PT027H.grib2 2026-04-10 14:54 427K
20260410T12Z_MSC_RDPS_AirTemp_IsbL-0150_RLatLon0.09_PT027H.grib2 2026-04-10 14:54 415K
20260410T12Z_MSC_RDPS_AirTemp_IsbL-0175_RLatLon0.09_PT027H.grib2 2026-04-10 14:54 413K
20260410T12Z_MSC_RDPS_AirTemp_IsbL-0200_RLatLon0.09_PT027H.grib2 2026-04-10 14:54 412K
20260410T12Z_MSC_RDPS_AirTemp_IsbL-0225_RLatLon0.09_PT027H.grib2 2026-04-10 14:54 409K
20260410T12Z_MSC_RDPS_AirTemp_IsbL-0250_RLatLon0.09_PT027H.grib2 2026-04-10 14:54 413K
20260410T12Z_MSC_RDPS_AirTemp_IsbL-0275_RLatLon0.09_PT027H.grib2 2026-04-10 14:54 396K
20260410T12Z_MSC_RDPS_AirTemp_IsbL-0300_RLatLon0.09_PT027H.grib2 2026-04-10 14:54 429K
20260410T12Z_MSC_RDPS_AirTemp_IsbL-0350_RLatLon0.09_PT027H.grib2 2026-04-10 14:54 419K
20260410T12Z_MSC_RDPS_AirTemp_IsbL-0400_RLatLon0.09_PT027H.grib2 2026-04-10 14:54 388K
20260410T12Z_MSC_RDPS_AirTemp_IsbL-0450_RLatLon0.09_PT027H.grib2 2026-04-10 14:54 394K
20260410T12Z_MSC_RDPS_AirTemp_IsbL-0500_RLatLon0.09_PT027H.grib2 2026-04-10 14:54 406K
20260410T12Z_MSC_RDPS_AirTemp_IsbL-0550_RLatLon0.09_PT027H.grib2 2026-04-10 14:54 425K
20260410T12Z_MSC_RDPS_AirTemp_IsbL-0600_RLatLon0.09_PT027H.grib2 2026-04-10 14:54 342K
20260410T12Z_MSC_RDPS_AirTemp_IsbL-0650_RLatLon0.09_PT027H.grib2 2026-04-10 14:54 353K
20260410T12Z_MSC_RDPS_AirTemp_IsbL-0700_RLatLon0.09_PT027H.grib2 2026-04-10 14:54 374K
20260410T12Z_MSC_RDPS_AirTemp_IsbL-0750_RLatLon0.09_PT027H.grib2 2026-04-10 14:54 410K
20260410T12Z_MSC_RDPS_AirTemp_IsbL-0800_RLatLon0.09_PT027H.grib2 2026-04-10 14:54 461K
20260410T12Z_MSC_RDPS_AirTemp_IsbL-0850_RLatLon0.09_PT027H.grib2 2026-04-10 14:54 510K
20260410T12Z_MSC_RDPS_AirTemp_IsbL-0875_RLatLon0.09_PT027H.grib2 2026-04-10 14:54 523K
20260410T12Z_MSC_RDPS_AirTemp_IsbL-0900_RLatLon0.09_PT027H.grib2 2026-04-10 14:54 528K
20260410T12Z_MSC_RDPS_AirTemp_IsbL-0925_RLatLon0.09_PT027H.grib2 2026-04-10 14:54 524K
20260410T12Z_MSC_RDPS_AirTemp_IsbL-0950_RLatLon0.09_PT027H.grib2 2026-04-10 14:54 530K
20260410T12Z_MSC_RDPS_AirTemp_IsbL-0970_RLatLon0.09_PT027H.grib2 2026-04-10 14:54 540K
20260410T12Z_MSC_RDPS_AirTemp_IsbL-0985_RLatLon0.09_PT027H.grib2 2026-04-10 14:54 534K
20260410T12Z_MSC_RDPS_AirTemp_IsbL-1000_RLatLon0.09_PT027H.grib2 2026-04-10 14:54 523K
20260410T12Z_MSC_RDPS_AirTemp_IsbL-1015_RLatLon0.09_PT027H.grib2 2026-04-10 14:54 515K
20260410T12Z_MSC_RDPS_Albedo_Sfc_RLatLon0.09_PT027H.grib2 2026-04-10 14:54 169K
20260410T12Z_MSC_RDPS_CAPE_Sfc_RLatLon0.09_PT027H.grib2 2026-04-10 14:54 1.7M
20260410T12Z_MSC_RDPS_CIN_Sfc_RLatLon0.09_PT027H.grib2 2026-04-10 14:54 1.2M
20260410T12Z_MSC_RDPS_CloudWater_EAtm_RLatLon0.09_PT027H.grib2 2026-04-10 14:54 212K
20260410T12Z_MSC_RDPS_ConvectivePrecip-Accum_Sfc_RLatLon0.09_PT027H.grib2 2026-04-10 14:54 891K
20260410T12Z_MSC_RDPS_DewPointDepression_AGL-2m_RLatLon0.09_PT027H.grib2 2026-04-10 14:54 406K
20260410T12Z_MSC_RDPS_DewPointDepression_IsbL-0001_RLatLon0.09_PT027H.grib2 2026-04-10 14:54 193
20260410T12Z_MSC_RDPS_DewPointDepression_IsbL-0005_RLatLon0.09_PT027H.grib2 2026-04-10 14:54 193
20260410T12Z_MSC_RDPS_DewPointDepression_IsbL-0010_RLatLon0.09_PT027H.grib2 2026-04-10 14:54 193
20260410T12Z_MSC_RDPS_DewPointDepression_IsbL-0020_RLatLon0.09_PT027H.grib2 2026-04-10 14:54 1.4K
20260410T12Z_MSC_RDPS_DewPointDepression_IsbL-0030_RLatLon0.09_PT027H.grib2 2026-04-10 14:54 16K
20260410T12Z_MSC_RDPS_DewPointDepression_IsbL-0050_RLatLon0.09_PT027H.grib2 2026-04-10 14:54 110K
20260410T12Z_MSC_RDPS_DewPointDepression_IsbL-0100_RLatLon0.09_PT027H.grib2 2026-04-10 14:54 129K
20260410T12Z_MSC_RDPS_DewPointDepression_IsbL-0150_RLatLon0.09_PT027H.grib2 2026-04-10 14:54 148K
20260410T12Z_MSC_RDPS_DewPointDepression_IsbL-0175_RLatLon0.09_PT027H.grib2 2026-04-10 14:54 175K
20260410T12Z_MSC_RDPS_DewPointDepression_IsbL-0200_RLatLon0.09_PT027H.grib2 2026-04-10 14:54 209K
20260410T12Z_MSC_RDPS_DewPointDepression_IsbL-0225_RLatLon0.09_PT027H.grib2 2026-04-10 14:54 244K
20260410T12Z_MSC_RDPS_DewPointDepression_IsbL-0250_RLatLon0.09_PT027H.grib2 2026-04-10 14:54 282K
20260410T12Z_MSC_RDPS_DewPointDepression_IsbL-0275_RLatLon0.09_PT027H.grib2 2026-04-10 14:54 294K
20260410T12Z_MSC_RDPS_DewPointDepression_IsbL-0300_RLatLon0.09_PT027H.grib2 2026-04-10 14:54 316K
20260410T12Z_MSC_RDPS_DewPointDepression_IsbL-0350_RLatLon0.09_PT027H.grib2 2026-04-10 14:54 322K
20260410T12Z_MSC_RDPS_DewPointDepression_IsbL-0400_RLatLon0.09_PT027H.grib2 2026-04-10 14:54 330K
20260410T12Z_MSC_RDPS_DewPointDepression_IsbL-0450_RLatLon0.09_PT027H.grib2 2026-04-10 14:54 341K
20260410T12Z_MSC_RDPS_DewPointDepression_IsbL-0500_RLatLon0.09_PT027H.grib2 2026-04-10 14:54 355K
20260410T12Z_MSC_RDPS_DewPointDepression_IsbL-0550_RLatLon0.09_PT027H.grib2 2026-04-10 14:54 365K
20260410T12Z_MSC_RDPS_DewPointDepression_IsbL-0600_RLatLon0.09_PT027H.grib2 2026-04-10 14:54 371K
20260410T12Z_MSC_RDPS_DewPointDepression_IsbL-0650_RLatLon0.09_PT027H.grib2 2026-04-10 14:54 370K
20260410T12Z_MSC_RDPS_DewPointDepression_IsbL-0700_RLatLon0.09_PT027H.grib2 2026-04-10 14:54 375K
20260410T12Z_MSC_RDPS_DewPointDepression_IsbL-0750_RLatLon0.09_PT027H.grib2 2026-04-10 14:54 400K
20260410T12Z_MSC_RDPS_DewPointDepression_IsbL-0800_RLatLon0.09_PT027H.grib2 2026-04-10 14:54 442K
20260410T12Z_MSC_RDPS_DewPointDepression_IsbL-0850_RLatLon0.09_PT027H.grib2 2026-04-10 14:54 474K
20260410T12Z_MSC_RDPS_DewPointDepression_IsbL-0875_RLatLon0.09_PT027H.grib2 2026-04-10 14:54 471K
20260410T12Z_MSC_RDPS_DewPointDepression_IsbL-0900_RLatLon0.09_PT027H.grib2 2026-04-10 14:54 459K
20260410T12Z_MSC_RDPS_DewPointDepression_IsbL-0925_RLatLon0.09_PT027H.grib2 2026-04-10 14:54 451K
20260410T12Z_MSC_RDPS_DewPointDepression_IsbL-0950_RLatLon0.09_PT027H.grib2 2026-04-10 14:54 444K
20260410T12Z_MSC_RDPS_DewPointDepression_IsbL-0970_RLatLon0.09_PT027H.grib2 2026-04-10 14:54 440K
20260410T12Z_MSC_RDPS_DewPointDepression_IsbL-0985_RLatLon0.09_PT027H.grib2 2026-04-10 14:54 439K
20260410T12Z_MSC_RDPS_DewPointDepression_IsbL-1000_RLatLon0.09_PT027H.grib2 2026-04-10 14:54 435K
20260410T12Z_MSC_RDPS_DewPointDepression_IsbL-1015_RLatLon0.09_PT027H.grib2 2026-04-10 14:54 426K
20260410T12Z_MSC_RDPS_DewPoint_AGL-2m_RLatLon0.09_PT027H.grib2 2026-04-10 14:54 314K
20260410T12Z_MSC_RDPS_DownwardLongwaveRadiationFlux-Accum_Sfc_RLatLon0.09_PT027H.grib2 2026-04-10 14:54 438K
20260410T12Z_MSC_RDPS_DownwardShortwaveRadiationFlux-Accum_NTAtm_RLatLon0.09_PT027H.grib2 2026-04-10 14:54 137K
20260410T12Z_MSC_RDPS_DownwardShortwaveRadiationFlux-Accum_Sfc_RLatLon0.09_PT027H.grib2 2026-04-10 14:54 625K
20260410T12Z_MSC_RDPS_FreezingRain-Accum1h_Sfc_RLatLon0.09_PT027H.grib2 2026-04-10 14:54 22K
20260410T12Z_MSC_RDPS_FreezingRain-Accum3h_Sfc_RLatLon0.09_PT027H.grib2 2026-04-10 14:54 29K
20260410T12Z_MSC_RDPS_FreezingRain-Accum_Sfc_RLatLon0.09_PT027H.grib2 2026-04-10 14:54 106K
20260410T12Z_MSC_RDPS_GeopotentialHeight_IsbL-0001_RLatLon0.09_PT027H.grib2 2026-04-10 14:54 245K
20260410T12Z_MSC_RDPS_GeopotentialHeight_IsbL-0005_RLatLon0.09_PT027H.grib2 2026-04-10 14:54 271K
20260410T12Z_MSC_RDPS_GeopotentialHeight_IsbL-0010_RLatLon0.09_PT027H.grib2 2026-04-10 14:54 240K
20260410T12Z_MSC_RDPS_GeopotentialHeight_IsbL-0020_RLatLon0.09_PT027H.grib2 2026-04-10 14:54 239K
20260410T12Z_MSC_RDPS_GeopotentialHeight_IsbL-0030_RLatLon0.09_PT027H.grib2 2026-04-10 14:54 242K
20260410T12Z_MSC_RDPS_GeopotentialHeight_IsbL-0050_RLatLon0.09_PT027H.grib2 2026-04-10 14:54 272K
20260410T12Z_MSC_RDPS_GeopotentialHeight_IsbL-0100_RLatLon0.09_PT027H.grib2 2026-04-10 14:54 222K
20260410T12Z_MSC_RDPS_GeopotentialHeight_IsbL-0150_RLatLon0.09_PT027H.grib2 2026-04-10 14:54 262K
20260410T12Z_MSC_RDPS_GeopotentialHeight_IsbL-0175_RLatLon0.09_PT027H.grib2 2026-04-10 14:54 265K
20260410T12Z_MSC_RDPS_GeopotentialHeight_IsbL-0200_RLatLon0.09_PT027H.grib2 2026-04-10 14:54 267K
20260410T12Z_MSC_RDPS_GeopotentialHeight_IsbL-0225_RLatLon0.09_PT027H.grib2 2026-04-10 14:54 267K
20260410T12Z_MSC_RDPS_GeopotentialHeight_IsbL-0250_RLatLon0.09_PT027H.grib2 2026-04-10 14:54 267K
20260410T12Z_MSC_RDPS_GeopotentialHeight_IsbL-0275_RLatLon0.09_PT027H.grib2 2026-04-10 14:54 266K
20260410T12Z_MSC_RDPS_GeopotentialHeight_IsbL-0300_RLatLon0.09_PT027H.grib2 2026-04-10 14:54 264K
20260410T12Z_MSC_RDPS_GeopotentialHeight_IsbL-0350_RLatLon0.09_PT027H.grib2 2026-04-10 14:54 259K
20260410T12Z_MSC_RDPS_GeopotentialHeight_IsbL-0400_RLatLon0.09_PT027H.grib2 2026-04-10 14:54 255K
20260410T12Z_MSC_RDPS_GeopotentialHeight_IsbL-0450_RLatLon0.09_PT027H.grib2 2026-04-10 14:54 221K
20260410T12Z_MSC_RDPS_GeopotentialHeight_IsbL-0500_RLatLon0.09_PT027H.grib2 2026-04-10 14:54 217K
20260410T12Z_MSC_RDPS_GeopotentialHeight_IsbL-0550_RLatLon0.09_PT027H.grib2 2026-04-10 14:54 287K
20260410T12Z_MSC_RDPS_GeopotentialHeight_IsbL-0600_RLatLon0.09_PT027H.grib2 2026-04-10 14:54 283K
20260410T12Z_MSC_RDPS_GeopotentialHeight_IsbL-0650_RLatLon0.09_PT027H.grib2 2026-04-10 14:54 282K
20260410T12Z_MSC_RDPS_GeopotentialHeight_IsbL-0700_RLatLon0.09_PT027H.grib2 2026-04-10 14:54 281K
20260410T12Z_MSC_RDPS_GeopotentialHeight_IsbL-0750_RLatLon0.09_PT027H.grib2 2026-04-10 14:54 256K
20260410T12Z_MSC_RDPS_GeopotentialHeight_IsbL-0800_RLatLon0.09_PT027H.grib2 2026-04-10 14:54 265K
20260410T12Z_MSC_RDPS_GeopotentialHeight_IsbL-0850_RLatLon0.09_PT027H.grib2 2026-04-10 14:54 275K
20260410T12Z_MSC_RDPS_GeopotentialHeight_IsbL-0875_RLatLon0.09_PT027H.grib2 2026-04-10 14:54 277K
20260410T12Z_MSC_RDPS_GeopotentialHeight_IsbL-0900_RLatLon0.09_PT027H.grib2 2026-04-10 14:54 279K
20260410T12Z_MSC_RDPS_GeopotentialHeight_IsbL-0925_RLatLon0.09_PT027H.grib2 2026-04-10 14:54 280K
20260410T12Z_MSC_RDPS_GeopotentialHeight_IsbL-0950_RLatLon0.09_PT027H.grib2 2026-04-10 14:54 283K
20260410T12Z_MSC_RDPS_GeopotentialHeight_IsbL-0970_RLatLon0.09_PT027H.grib2 2026-04-10 14:54 287K
20260410T12Z_MSC_RDPS_GeopotentialHeight_IsbL-0985_RLatLon0.09_PT027H.grib2 2026-04-10 14:54 295K
20260410T12Z_MSC_RDPS_GeopotentialHeight_IsbL-1000_RLatLon0.09_PT027H.grib2 2026-04-10 14:54 304K
20260410T12Z_MSC_RDPS_GeopotentialHeight_IsbL-1015_RLatLon0.09_PT027H.grib2 2026-04-10 14:54 317K
20260410T12Z_MSC_RDPS_Humidex_Sfc_RLatLon0.09_PT027H.grib2 2026-04-10 14:54 2.4M
20260410T12Z_MSC_RDPS_IcePellets-Accum1h_Sfc_RLatLon0.09_PT027H.grib2 2026-04-10 14:54 3.7K
20260410T12Z_MSC_RDPS_IcePellets-Accum3h_Sfc_RLatLon0.09_PT027H.grib2 2026-04-10 14:54 4.9K
20260410T12Z_MSC_RDPS_IcePellets-Accum_Sfc_RLatLon0.09_PT027H.grib2 2026-04-10 14:54 17K
20260410T12Z_MSC_RDPS_KIndex_Sfc_RLatLon0.09_PT027H.grib2 2026-04-10 14:54 2.4M
20260410T12Z_MSC_RDPS_LatentHeatNetFlux_Sfc_RLatLon0.09_PT027H.grib2 2026-04-10 14:54 357K
20260410T12Z_MSC_RDPS_LiftedIndex-MU-VT_IsbL-0500_RLatLon0.09_PT027H.grib2 2026-04-10 14:54 2.4M
20260410T12Z_MSC_RDPS_NetLongwaveRadiationFlux-Accum_Sfc_RLatLon0.09_PT027H.grib2 2026-04-10 14:54 587K
20260410T12Z_MSC_RDPS_NetShortwaveRadiationFlux-Accum_Sfc_RLatLon0.09_PT027H.grib2 2026-04-10 14:54 634K
20260410T12Z_MSC_RDPS_PlanetaryBoundaryLayerHeight_Sfc_RLatLon0.09_PT027H.grib2 2026-04-10 14:54 1.1M
20260410T12Z_MSC_RDPS_Precip-Accum1h_Sfc_RLatLon0.09_PT027H.grib2 2026-04-10 14:54 1.4M
20260410T12Z_MSC_RDPS_Precip-Accum3h_Sfc_RLatLon0.09_PT027H.grib2 2026-04-10 14:54 1.5M
20260410T12Z_MSC_RDPS_Precip-Accum_Sfc_RLatLon0.09_PT027H.grib2 2026-04-10 14:54 1.9M
20260410T12Z_MSC_RDPS_PrecipRate_Sfc_RLatLon0.09_PT027H.grib2 2026-04-10 14:54 190K
20260410T12Z_MSC_RDPS_PrecipType-Instant_Sfc_RLatLon0.09_PT027H.grib2 2026-04-10 14:54 595K
20260410T12Z_MSC_RDPS_Pressure-Trend3h_Sfc_RLatLon0.09_PT027H.grib2 2026-04-10 14:54 1.2M
20260410T12Z_MSC_RDPS_Pressure_MSL_RLatLon0.09_PT027H.grib2 2026-04-10 14:54 330K
20260410T12Z_MSC_RDPS_Pressure_PVU-1.5_RLatLon0.09_PT027H.grib2 2026-04-10 14:54 2.5M
20260410T12Z_MSC_RDPS_Pressure_PVU-1_RLatLon0.09_PT027H.grib2 2026-04-10 14:54 2.4M
20260410T12Z_MSC_RDPS_Pressure_PVU-2_RLatLon0.09_PT027H.grib2 2026-04-10 14:54 2.4M
20260410T12Z_MSC_RDPS_Pressure_Sfc_RLatLon0.09_PT027H.grib2 2026-04-10 14:54 503K
20260410T12Z_MSC_RDPS_RadiativeTemp_Sfc_RLatLon0.09_PT027H.grib2 2026-04-10 14:54 312K
20260410T12Z_MSC_RDPS_Rain-Accum1h_Sfc_RLatLon0.09_PT027H.grib2 2026-04-10 14:54 676K
20260410T12Z_MSC_RDPS_Rain-Accum3h_Sfc_RLatLon0.09_PT027H.grib2 2026-04-10 14:54 771K
20260410T12Z_MSC_RDPS_Rain-Accum_Sfc_RLatLon0.09_PT027H.grib2 2026-04-10 14:54 1.4M
20260410T12Z_MSC_RDPS_RelativeHumidity_AGL-2m_RLatLon0.09_PT027H.grib2 2026-04-10 14:54 1.0M
20260410T12Z_MSC_RDPS_RelativeHumidity_IsbL-0010_RLatLon0.09_PT027H.grib2 2026-04-10 14:54 436K
20260410T12Z_MSC_RDPS_RelativeHumidity_IsbL-0020_RLatLon0.09_PT027H.grib2 2026-04-10 14:54 411K
20260410T12Z_MSC_RDPS_RelativeHumidity_IsbL-0030_RLatLon0.09_PT027H.grib2 2026-04-10 14:54 375K
20260410T12Z_MSC_RDPS_RelativeHumidity_IsbL-0050_RLatLon0.09_PT027H.grib2 2026-04-10 14:54 393K
20260410T12Z_MSC_RDPS_RelativeHumidity_IsbL-0100_RLatLon0.09_PT027H.grib2 2026-04-10 14:54 262K
20260410T12Z_MSC_RDPS_RelativeHumidity_IsbL-0150_RLatLon0.09_PT027H.grib2 2026-04-10 14:54 374K
20260410T12Z_MSC_RDPS_RelativeHumidity_IsbL-0175_RLatLon0.09_PT027H.grib2 2026-04-10 14:54 454K
20260410T12Z_MSC_RDPS_RelativeHumidity_IsbL-0200_RLatLon0.09_PT027H.grib2 2026-04-10 14:54 534K
20260410T12Z_MSC_RDPS_RelativeHumidity_IsbL-0225_RLatLon0.09_PT027H.grib2 2026-04-10 14:54 598K
20260410T12Z_MSC_RDPS_RelativeHumidity_IsbL-0250_RLatLon0.09_PT027H.grib2 2026-04-10 14:54 658K
20260410T12Z_MSC_RDPS_RelativeHumidity_IsbL-0275_RLatLon0.09_PT027H.grib2 2026-04-10 14:54 681K
20260410T12Z_MSC_RDPS_RelativeHumidity_IsbL-0300_RLatLon0.09_PT027H.grib2 2026-04-10 14:54 727K
20260410T12Z_MSC_RDPS_RelativeHumidity_IsbL-0350_RLatLon0.09_PT027H.grib2 2026-04-10 14:54 751K
20260410T12Z_MSC_RDPS_RelativeHumidity_IsbL-0400_RLatLon0.09_PT027H.grib2 2026-04-10 14:54 768K
20260410T12Z_MSC_RDPS_RelativeHumidity_IsbL-0450_RLatLon0.09_PT027H.grib2 2026-04-10 14:54 784K
20260410T12Z_MSC_RDPS_RelativeHumidity_IsbL-0500_RLatLon0.09_PT027H.grib2 2026-04-10 14:54 797K
20260410T12Z_MSC_RDPS_RelativeHumidity_IsbL-0550_RLatLon0.09_PT027H.grib2 2026-04-10 14:54 814K
20260410T12Z_MSC_RDPS_RelativeHumidity_IsbL-0600_RLatLon0.09_PT027H.grib2 2026-04-10 14:54 829K
20260410T12Z_MSC_RDPS_RelativeHumidity_IsbL-0650_RLatLon0.09_PT027H.grib2 2026-04-10 14:54 847K
20260410T12Z_MSC_RDPS_RelativeHumidity_IsbL-0700_RLatLon0.09_PT027H.grib2 2026-04-10 14:54 866K
20260410T12Z_MSC_RDPS_RelativeHumidity_IsbL-0750_RLatLon0.09_PT027H.grib2 2026-04-10 14:54 913K
20260410T12Z_MSC_RDPS_RelativeHumidity_IsbL-0800_RLatLon0.09_PT027H.grib2 2026-04-10 14:54 1.0M
20260410T12Z_MSC_RDPS_RelativeHumidity_IsbL-0850_RLatLon0.09_PT027H.grib2 2026-04-10 14:54 1.0M
20260410T12Z_MSC_RDPS_RelativeHumidity_IsbL-0875_RLatLon0.09_PT027H.grib2 2026-04-10 14:54 1.1M
20260410T12Z_MSC_RDPS_RelativeHumidity_IsbL-0900_RLatLon0.09_PT027H.grib2 2026-04-10 14:54 1.1M
20260410T12Z_MSC_RDPS_RelativeHumidity_IsbL-0925_RLatLon0.09_PT027H.grib2 2026-04-10 14:54 1.1M
20260410T12Z_MSC_RDPS_RelativeHumidity_IsbL-0950_RLatLon0.09_PT027H.grib2 2026-04-10 14:54 1.1M
20260410T12Z_MSC_RDPS_RelativeHumidity_IsbL-0970_RLatLon0.09_PT027H.grib2 2026-04-10 14:54 1.1M
20260410T12Z_MSC_RDPS_RelativeHumidity_IsbL-0985_RLatLon0.09_PT027H.grib2 2026-04-10 14:54 1.0M
20260410T12Z_MSC_RDPS_RelativeHumidity_IsbL-1000_RLatLon0.09_PT027H.grib2 2026-04-10 14:54 1.0M
20260410T12Z_MSC_RDPS_RelativeHumidity_IsbL-1015_RLatLon0.09_PT027H.grib2 2026-04-10 14:54 1.0M
20260410T12Z_MSC_RDPS_Runoff-Accum_Sfc_RLatLon0.09_PT027H.grib2 2026-04-10 14:54 52K
20260410T12Z_MSC_RDPS_SWEATIndex_Sfc_RLatLon0.09_PT027H.grib2 2026-04-10 14:54 2.4M
20260410T12Z_MSC_RDPS_SeeingIndex_EAtm_RLatLon0.09_PT027H.grib2 2026-04-10 14:54 1.0M
20260410T12Z_MSC_RDPS_SensibleHeatNetFlux_Sfc_RLatLon0.09_PT027H.grib2 2026-04-10 14:54 350K
20260410T12Z_MSC_RDPS_ShowalterIndex_IsbL-0500_RLatLon0.09_PT027H.grib2 2026-04-10 14:54 2.6M
20260410T12Z_MSC_RDPS_SkyTransparencyIndex_EAtm_RLatLon0.09_PT027H.grib2 2026-04-10 14:54 711K
20260410T12Z_MSC_RDPS_Snow-Accum1h_Sfc_RLatLon0.09_PT027H.grib2 2026-04-10 14:54 502K
20260410T12Z_MSC_RDPS_Snow-Accum3h_Sfc_RLatLon0.09_PT027H.grib2 2026-04-10 14:54 459K
20260410T12Z_MSC_RDPS_Snow-Accum_Sfc_RLatLon0.09_PT027H.grib2 2026-04-10 14:54 793K
20260410T12Z_MSC_RDPS_SnowDensity_Sfc_RLatLon0.09_PT027H.grib2 2026-04-10 14:54 174K
20260410T12Z_MSC_RDPS_SnowDepth_Sfc_RLatLon0.09_PT027H.grib2 2026-04-10 14:54 725K
20260410T12Z_MSC_RDPS_SoilTemp_DBS-0to10cm_RLatLon0.09_PT027H.grib2 2026-04-10 14:54 221K
20260410T12Z_MSC_RDPS_SoilTemp_Sfc_RLatLon0.09_PT027H.grib2 2026-04-10 14:54 286K
20260410T12Z_MSC_RDPS_SoilVolumetricIceContent_Sfc_RLatLon0.09_PT027H.grib2 2026-04-10 14:54 180K
20260410T12Z_MSC_RDPS_SoilVolumetricWaterContent_DBS-0to10cm_RLatLon0.09_PT027H.grib2 2026-04-10 14:54 237K
20260410T12Z_MSC_RDPS_SoilVolumetricWaterContent_DBS-0to1cm_RLatLon0.09_PT027H.grib2 2026-04-10 14:54 337K
20260410T12Z_MSC_RDPS_SpecificHumidity_AGL-120m_RLatLon0.09_PT027H.grib2 2026-04-10 14:54 484K
20260410T12Z_MSC_RDPS_SpecificHumidity_AGL-2m_RLatLon0.09_PT027H.grib2 2026-04-10 14:54 643K
20260410T12Z_MSC_RDPS_SpecificHumidity_AGL-40m_RLatLon0.09_PT027H.grib2 2026-04-10 14:54 488K
20260410T12Z_MSC_RDPS_SpecificHumidity_AGL-80m_RLatLon0.09_PT027H.grib2 2026-04-10 14:54 486K
20260410T12Z_MSC_RDPS_SpecificHumidity_IsbL-0001_RLatLon0.09_PT027H.grib2 2026-04-10 14:54 312K
20260410T12Z_MSC_RDPS_SpecificHumidity_IsbL-0005_RLatLon0.09_PT027H.grib2 2026-04-10 14:54 337K
20260410T12Z_MSC_RDPS_SpecificHumidity_IsbL-0010_RLatLon0.09_PT027H.grib2 2026-04-10 14:54 358K
20260410T12Z_MSC_RDPS_SpecificHumidity_IsbL-0020_RLatLon0.09_PT027H.grib2 2026-04-10 14:54 371K
20260410T12Z_MSC_RDPS_SpecificHumidity_IsbL-0030_RLatLon0.09_PT027H.grib2 2026-04-10 14:54 376K
20260410T12Z_MSC_RDPS_SpecificHumidity_IsbL-0050_RLatLon0.09_PT027H.grib2 2026-04-10 14:54 476K
20260410T12Z_MSC_RDPS_SpecificHumidity_IsbL-0100_RLatLon0.09_PT027H.grib2 2026-04-10 14:54 379K
20260410T12Z_MSC_RDPS_SpecificHumidity_IsbL-0150_RLatLon0.09_PT027H.grib2 2026-04-10 14:54 426K
20260410T12Z_MSC_RDPS_SpecificHumidity_IsbL-0175_RLatLon0.09_PT027H.grib2 2026-04-10 14:54 408K
20260410T12Z_MSC_RDPS_SpecificHumidity_IsbL-0200_RLatLon0.09_PT027H.grib2 2026-04-10 14:54 422K
20260410T12Z_MSC_RDPS_SpecificHumidity_IsbL-0225_RLatLon0.09_PT027H.grib2 2026-04-10 14:54 423K
20260410T12Z_MSC_RDPS_SpecificHumidity_IsbL-0250_RLatLon0.09_PT027H.grib2 2026-04-10 14:54 525K
20260410T12Z_MSC_RDPS_SpecificHumidity_IsbL-0275_RLatLon0.09_PT027H.grib2 2026-04-10 14:54 445K
20260410T12Z_MSC_RDPS_SpecificHumidity_IsbL-0300_RLatLon0.09_PT027H.grib2 2026-04-10 14:54 541K
20260410T12Z_MSC_RDPS_SpecificHumidity_IsbL-0350_RLatLon0.09_PT027H.grib2 2026-04-10 14:54 506K
20260410T12Z_MSC_RDPS_SpecificHumidity_IsbL-0400_RLatLon0.09_PT027H.grib2 2026-04-10 14:54 490K
20260410T12Z_MSC_RDPS_SpecificHumidity_IsbL-0450_RLatLon0.09_PT027H.grib2 2026-04-10 14:54 550K
20260410T12Z_MSC_RDPS_SpecificHumidity_IsbL-0500_RLatLon0.09_PT027H.grib2 2026-04-10 14:54 494K
20260410T12Z_MSC_RDPS_SpecificHumidity_IsbL-0550_RLatLon0.09_PT027H.grib2 2026-04-10 14:54 550K
20260410T12Z_MSC_RDPS_SpecificHumidity_IsbL-0600_RLatLon0.09_PT027H.grib2 2026-04-10 14:54 613K
20260410T12Z_MSC_RDPS_SpecificHumidity_IsbL-0650_RLatLon0.09_PT027H.grib2 2026-04-10 14:54 524K
20260410T12Z_MSC_RDPS_SpecificHumidity_IsbL-0700_RLatLon0.09_PT027H.grib2 2026-04-10 14:54 561K
20260410T12Z_MSC_RDPS_SpecificHumidity_IsbL-0750_RLatLon0.09_PT027H.grib2 2026-04-10 14:54 620K
20260410T12Z_MSC_RDPS_SpecificHumidity_IsbL-0800_RLatLon0.09_PT027H.grib2 2026-04-10 14:54 712K
20260410T12Z_MSC_RDPS_SpecificHumidity_IsbL-0850_RLatLon0.09_PT027H.grib2 2026-04-10 14:54 785K
20260410T12Z_MSC_RDPS_SpecificHumidity_IsbL-0875_RLatLon0.09_PT027H.grib2 2026-04-10 14:54 805K
20260410T12Z_MSC_RDPS_SpecificHumidity_IsbL-0900_RLatLon0.09_PT027H.grib2 2026-04-10 14:54 815K
20260410T12Z_MSC_RDPS_SpecificHumidity_IsbL-0925_RLatLon0.09_PT027H.grib2 2026-04-10 14:54 821K
20260410T12Z_MSC_RDPS_SpecificHumidity_IsbL-0950_RLatLon0.09_PT027H.grib2 2026-04-10 14:54 824K
20260410T12Z_MSC_RDPS_SpecificHumidity_IsbL-0970_RLatLon0.09_PT027H.grib2 2026-04-10 14:54 819K
20260410T12Z_MSC_RDPS_SpecificHumidity_IsbL-0985_RLatLon0.09_PT027H.grib2 2026-04-10 14:54 674K
20260410T12Z_MSC_RDPS_SpecificHumidity_IsbL-1000_RLatLon0.09_PT027H.grib2 2026-04-10 14:54 667K
20260410T12Z_MSC_RDPS_SpecificHumidity_IsbL-1015_RLatLon0.09_PT027H.grib2 2026-04-10 14:54 658K
20260410T12Z_MSC_RDPS_SpecificHumidity_Sfc_RLatLon0.09_PT027H.grib2 2026-04-10 14:54 294K
20260410T12Z_MSC_RDPS_StormRelativeHelicity_EtaL-10000_RLatLon0.09_PT027H.grib2 2026-04-10 14:54 1.1M
20260410T12Z_MSC_RDPS_StormSeverityIndex_EtaL-10000_RLatLon0.09_PT027H.grib2 2026-04-10 14:54 1.1M
20260410T12Z_MSC_RDPS_Thickness_IsbL-0850to0700_RLatLon0.09_PT027H.grib2 2026-04-10 14:54 197K
20260410T12Z_MSC_RDPS_Thickness_IsbL-1000to0500_RLatLon0.09_PT027H.grib2 2026-04-10 14:54 138K
20260410T12Z_MSC_RDPS_Thickness_IsbL-1000to0850_RLatLon0.09_PT027H.grib2 2026-04-10 14:54 187K
20260410T12Z_MSC_RDPS_TotalCloudCover_Sfc_RLatLon0.09_PT027H.grib2 2026-04-10 14:54 658K
20260410T12Z_MSC_RDPS_TotalTotalsIndex_Sfc_RLatLon0.09_PT027H.grib2 2026-04-10 14:54 2.4M
20260410T12Z_MSC_RDPS_UVIndex-ClearSky_Sfc_RLatLon0.09_PT027H.grib2 2026-04-10 14:54 162K
20260410T12Z_MSC_RDPS_UVIndex_Sfc_RLatLon0.09_PT027H.grib2 2026-04-10 14:54 386K
20260410T12Z_MSC_RDPS_UpwardLongwaveRadiationFlux_NTAtm_RLatLon0.09_PT027H.grib2 2026-04-10 14:54 475K
20260410T12Z_MSC_RDPS_UpwardShortwaveRadiationFlux_NTAtm_RLatLon0.09_PT027H.grib2 2026-04-10 14:54 445K
20260410T12Z_MSC_RDPS_VerticalVelocity_IsbL-0250_RLatLon0.09_PT027H.grib2 2026-04-10 14:54 580K
20260410T12Z_MSC_RDPS_VerticalVelocity_IsbL-0500_RLatLon0.09_PT027H.grib2 2026-04-10 14:54 678K
20260410T12Z_MSC_RDPS_VerticalVelocity_IsbL-0700_RLatLon0.09_PT027H.grib2 2026-04-10 14:54 597K
20260410T12Z_MSC_RDPS_VerticalVelocity_IsbL-0850_RLatLon0.09_PT027H.grib2 2026-04-10 14:54 698K
20260410T12Z_MSC_RDPS_VerticalWindShear_EtaL-6500_RLatLon0.09_PT027H.grib2 2026-04-10 14:54 1.2M
20260410T12Z_MSC_RDPS_WindChill_Sfc_RLatLon0.09_PT027H.grib2 2026-04-10 14:54 1.1M
20260410T12Z_MSC_RDPS_WindDir_AGL-10m_RLatLon0.09_PT027H.grib2 2026-04-10 14:54 950K
20260410T12Z_MSC_RDPS_WindDir_AGL-120m_RLatLon0.09_PT027H.grib2 2026-04-10 14:54 593K
20260410T12Z_MSC_RDPS_WindDir_AGL-40m_RLatLon0.09_PT027H.grib2 2026-04-10 14:54 619K
20260410T12Z_MSC_RDPS_WindDir_AGL-80m_RLatLon0.09_PT027H.grib2 2026-04-10 14:54 604K
20260410T12Z_MSC_RDPS_WindDir_IsbL-0001_RLatLon0.09_PT027H.grib2 2026-04-10 14:54 262K
20260410T12Z_MSC_RDPS_WindDir_IsbL-0005_RLatLon0.09_PT027H.grib2 2026-04-10 14:54 326K
20260410T12Z_MSC_RDPS_WindDir_IsbL-0010_RLatLon0.09_PT027H.grib2 2026-04-10 14:54 341K
20260410T12Z_MSC_RDPS_WindDir_IsbL-0020_RLatLon0.09_PT027H.grib2 2026-04-10 14:54 373K
20260410T12Z_MSC_RDPS_WindDir_IsbL-0030_RLatLon0.09_PT027H.grib2 2026-04-10 14:54 372K
20260410T12Z_MSC_RDPS_WindDir_IsbL-0050_RLatLon0.09_PT027H.grib2 2026-04-10 14:54 386K
20260410T12Z_MSC_RDPS_WindDir_IsbL-0100_RLatLon0.09_PT027H.grib2 2026-04-10 14:54 383K
20260410T12Z_MSC_RDPS_WindDir_IsbL-0150_RLatLon0.09_PT027H.grib2 2026-04-10 14:54 365K
20260410T12Z_MSC_RDPS_WindDir_IsbL-0175_RLatLon0.09_PT027H.grib2 2026-04-10 14:54 388K
20260410T12Z_MSC_RDPS_WindDir_IsbL-0200_RLatLon0.09_PT027H.grib2 2026-04-10 14:54 403K
20260410T12Z_MSC_RDPS_WindDir_IsbL-0225_RLatLon0.09_PT027H.grib2 2026-04-10 14:54 406K
20260410T12Z_MSC_RDPS_WindDir_IsbL-0250_RLatLon0.09_PT027H.grib2 2026-04-10 14:54 414K
20260410T12Z_MSC_RDPS_WindDir_IsbL-0275_RLatLon0.09_PT027H.grib2 2026-04-10 14:54 435K
20260410T12Z_MSC_RDPS_WindDir_IsbL-0300_RLatLon0.09_PT027H.grib2 2026-04-10 14:54 440K
20260410T12Z_MSC_RDPS_WindDir_IsbL-0350_RLatLon0.09_PT027H.grib2 2026-04-10 14:54 472K
20260410T12Z_MSC_RDPS_WindDir_IsbL-0400_RLatLon0.09_PT027H.grib2 2026-04-10 14:54 510K
20260410T12Z_MSC_RDPS_WindDir_IsbL-0450_RLatLon0.09_PT027H.grib2 2026-04-10 14:54 529K
20260410T12Z_MSC_RDPS_WindDir_IsbL-0500_RLatLon0.09_PT027H.grib2 2026-04-10 14:54 545K
20260410T12Z_MSC_RDPS_WindDir_IsbL-0550_RLatLon0.09_PT027H.grib2 2026-04-10 14:54 556K
20260410T12Z_MSC_RDPS_WindDir_IsbL-0600_RLatLon0.09_PT027H.grib2 2026-04-10 14:54 579K
20260410T12Z_MSC_RDPS_WindDir_IsbL-0650_RLatLon0.09_PT027H.grib2 2026-04-10 14:54 617K
20260410T12Z_MSC_RDPS_WindDir_IsbL-0700_RLatLon0.09_PT027H.grib2 2026-04-10 14:54 650K
20260410T12Z_MSC_RDPS_WindDir_IsbL-0750_RLatLon0.09_PT027H.grib2 2026-04-10 14:54 691K
20260410T12Z_MSC_RDPS_WindDir_IsbL-0800_RLatLon0.09_PT027H.grib2 2026-04-10 14:54 755K
20260410T12Z_MSC_RDPS_WindDir_IsbL-0850_RLatLon0.09_PT027H.grib2 2026-04-10 14:54 830K
20260410T12Z_MSC_RDPS_WindDir_IsbL-0875_RLatLon0.09_PT027H.grib2 2026-04-10 14:54 856K
20260410T12Z_MSC_RDPS_WindDir_IsbL-0900_RLatLon0.09_PT027H.grib2 2026-04-10 14:54 874K
20260410T12Z_MSC_RDPS_WindDir_IsbL-0925_RLatLon0.09_PT027H.grib2 2026-04-10 14:54 888K
20260410T12Z_MSC_RDPS_WindDir_IsbL-0950_RLatLon0.09_PT027H.grib2 2026-04-10 14:54 893K
20260410T12Z_MSC_RDPS_WindDir_IsbL-0970_RLatLon0.09_PT027H.grib2 2026-04-10 14:54 899K
20260410T12Z_MSC_RDPS_WindDir_IsbL-0985_RLatLon0.09_PT027H.grib2 2026-04-10 14:54 909K
20260410T12Z_MSC_RDPS_WindDir_IsbL-1000_RLatLon0.09_PT027H.grib2 2026-04-10 14:54 925K
20260410T12Z_MSC_RDPS_WindDir_IsbL-1015_RLatLon0.09_PT027H.grib2 2026-04-10 14:54 941K
20260410T12Z_MSC_RDPS_WindGust-Max_AGL-10m_RLatLon0.09_PT027H.grib2 2026-04-10 14:54 1.0M
20260410T12Z_MSC_RDPS_WindGust-Min_AGL-10m_RLatLon0.09_PT027H.grib2 2026-04-10 14:54 1.0M
20260410T12Z_MSC_RDPS_WindGust_AGL-10m_RLatLon0.09_PT027H.grib2 2026-04-10 14:54 1.0M
20260410T12Z_MSC_RDPS_WindSpeed_AGL-10m_RLatLon0.09_PT027H.grib2 2026-04-10 14:54 839K
20260410T12Z_MSC_RDPS_WindSpeed_AGL-120m_RLatLon0.09_PT027H.grib2 2026-04-10 14:54 540K
20260410T12Z_MSC_RDPS_WindSpeed_AGL-40m_RLatLon0.09_PT027H.grib2 2026-04-10 14:54 541K
20260410T12Z_MSC_RDPS_WindSpeed_AGL-80m_RLatLon0.09_PT027H.grib2 2026-04-10 14:54 540K
20260410T12Z_MSC_RDPS_WindSpeed_IsbL-0001_RLatLon0.09_PT027H.grib2 2026-04-10 14:54 272K
20260410T12Z_MSC_RDPS_WindSpeed_IsbL-0005_RLatLon0.09_PT027H.grib2 2026-04-10 14:54 316K
20260410T12Z_MSC_RDPS_WindSpeed_IsbL-0010_RLatLon0.09_PT027H.grib2 2026-04-10 14:54 358K
20260410T12Z_MSC_RDPS_WindSpeed_IsbL-0020_RLatLon0.09_PT027H.grib2 2026-04-10 14:54 346K
20260410T12Z_MSC_RDPS_WindSpeed_IsbL-0030_RLatLon0.09_PT027H.grib2 2026-04-10 14:54 344K
20260410T12Z_MSC_RDPS_WindSpeed_IsbL-0050_RLatLon0.09_PT027H.grib2 2026-04-10 14:54 375K
20260410T12Z_MSC_RDPS_WindSpeed_IsbL-0100_RLatLon0.09_PT027H.grib2 2026-04-10 14:54 486K
20260410T12Z_MSC_RDPS_WindSpeed_IsbL-0150_RLatLon0.09_PT027H.grib2 2026-04-10 14:54 470K
20260410T12Z_MSC_RDPS_WindSpeed_IsbL-0175_RLatLon0.09_PT027H.grib2 2026-04-10 14:54 394K
20260410T12Z_MSC_RDPS_WindSpeed_IsbL-0200_RLatLon0.09_PT027H.grib2 2026-04-10 14:54 411K
20260410T12Z_MSC_RDPS_WindSpeed_IsbL-0225_RLatLon0.09_PT027H.grib2 2026-04-10 14:54 420K
20260410T12Z_MSC_RDPS_WindSpeed_IsbL-0250_RLatLon0.09_PT027H.grib2 2026-04-10 14:54 442K
20260410T12Z_MSC_RDPS_WindSpeed_IsbL-0275_RLatLon0.09_PT027H.grib2 2026-04-10 14:54 459K
20260410T12Z_MSC_RDPS_WindSpeed_IsbL-0300_RLatLon0.09_PT027H.grib2 2026-04-10 14:54 455K
20260410T12Z_MSC_RDPS_WindSpeed_IsbL-0350_RLatLon0.09_PT027H.grib2 2026-04-10 14:54 466K
20260410T12Z_MSC_RDPS_WindSpeed_IsbL-0400_RLatLon0.09_PT027H.grib2 2026-04-10 14:54 453K
20260410T12Z_MSC_RDPS_WindSpeed_IsbL-0450_RLatLon0.09_PT027H.grib2 2026-04-10 14:54 455K
20260410T12Z_MSC_RDPS_WindSpeed_IsbL-0500_RLatLon0.09_PT027H.grib2 2026-04-10 14:54 457K
20260410T12Z_MSC_RDPS_WindSpeed_IsbL-0550_RLatLon0.09_PT027H.grib2 2026-04-10 14:54 579K
20260410T12Z_MSC_RDPS_WindSpeed_IsbL-0600_RLatLon0.09_PT027H.grib2 2026-04-10 14:54 592K
20260410T12Z_MSC_RDPS_WindSpeed_IsbL-0650_RLatLon0.09_PT027H.grib2 2026-04-10 14:54 657K
20260410T12Z_MSC_RDPS_WindSpeed_IsbL-0700_RLatLon0.09_PT027H.grib2 2026-04-10 14:54 681K
20260410T12Z_MSC_RDPS_WindSpeed_IsbL-0750_RLatLon0.09_PT027H.grib2 2026-04-10 14:54 712K
20260410T12Z_MSC_RDPS_WindSpeed_IsbL-0800_RLatLon0.09_PT027H.grib2 2026-04-10 14:54 764K
20260410T12Z_MSC_RDPS_WindSpeed_IsbL-0850_RLatLon0.09_PT027H.grib2 2026-04-10 14:54 825K
20260410T12Z_MSC_RDPS_WindSpeed_IsbL-0875_RLatLon0.09_PT027H.grib2 2026-04-10 14:54 844K
20260410T12Z_MSC_RDPS_WindSpeed_IsbL-0900_RLatLon0.09_PT027H.grib2 2026-04-10 14:54 855K
20260410T12Z_MSC_RDPS_WindSpeed_IsbL-0925_RLatLon0.09_PT027H.grib2 2026-04-10 14:54 867K
20260410T12Z_MSC_RDPS_WindSpeed_IsbL-0950_RLatLon0.09_PT027H.grib2 2026-04-10 14:54 866K
20260410T12Z_MSC_RDPS_WindSpeed_IsbL-0970_RLatLon0.09_PT027H.grib2 2026-04-10 14:54 866K
20260410T12Z_MSC_RDPS_WindSpeed_IsbL-0985_RLatLon0.09_PT027H.grib2 2026-04-10 14:54 859K
20260410T12Z_MSC_RDPS_WindSpeed_IsbL-1000_RLatLon0.09_PT027H.grib2 2026-04-10 14:54 852K
20260410T12Z_MSC_RDPS_WindSpeed_IsbL-1015_RLatLon0.09_PT027H.grib2 2026-04-10 14:54 842K
20260410T12Z_MSC_RDPS_WindU_AGL-10m_RLatLon0.09_PT027H.grib2 2026-04-10 14:54 432K
20260410T12Z_MSC_RDPS_WindU_AGL-120m_RLatLon0.09_PT027H.grib2 2026-04-10 14:54 419K
20260410T12Z_MSC_RDPS_WindU_AGL-40m_RLatLon0.09_PT027H.grib2 2026-04-10 14:54 538K
20260410T12Z_MSC_RDPS_WindU_AGL-80m_RLatLon0.09_PT027H.grib2 2026-04-10 14:54 537K
20260410T12Z_MSC_RDPS_WindU_IsbL-0001_RLatLon0.09_PT027H.grib2 2026-04-10 14:54 268K
20260410T12Z_MSC_RDPS_WindU_IsbL-0005_RLatLon0.09_PT027H.grib2 2026-04-10 14:54 242K
20260410T12Z_MSC_RDPS_WindU_IsbL-0010_RLatLon0.09_PT027H.grib2 2026-04-10 14:54 249K
20260410T12Z_MSC_RDPS_WindU_IsbL-0020_RLatLon0.09_PT027H.grib2 2026-04-10 14:54 342K
20260410T12Z_MSC_RDPS_WindU_IsbL-0030_RLatLon0.09_PT027H.grib2 2026-04-10 14:54 343K
20260410T12Z_MSC_RDPS_WindU_IsbL-0050_RLatLon0.09_PT027H.grib2 2026-04-10 14:54 284K
20260410T12Z_MSC_RDPS_WindU_IsbL-0100_RLatLon0.09_PT027H.grib2 2026-04-10 14:54 343K
20260410T12Z_MSC_RDPS_WindU_IsbL-0150_RLatLon0.09_PT027H.grib2 2026-04-10 14:54 385K
20260410T12Z_MSC_RDPS_WindU_IsbL-0175_RLatLon0.09_PT027H.grib2 2026-04-10 14:54 410K
20260410T12Z_MSC_RDPS_WindU_IsbL-0200_RLatLon0.09_PT027H.grib2 2026-04-10 14:54 427K
20260410T12Z_MSC_RDPS_WindU_IsbL-0225_RLatLon0.09_PT027H.grib2 2026-04-10 14:54 335K
20260410T12Z_MSC_RDPS_WindU_IsbL-0250_RLatLon0.09_PT027H.grib2 2026-04-10 14:54 336K
20260410T12Z_MSC_RDPS_WindU_IsbL-0275_RLatLon0.09_PT027H.grib2 2026-04-10 14:54 349K
20260410T12Z_MSC_RDPS_WindU_IsbL-0300_RLatLon0.09_PT027H.grib2 2026-04-10 14:54 346K
20260410T12Z_MSC_RDPS_WindU_IsbL-0350_RLatLon0.09_PT027H.grib2 2026-04-10 14:54 355K
20260410T12Z_MSC_RDPS_WindU_IsbL-0400_RLatLon0.09_PT027H.grib2 2026-04-10 14:54 359K
20260410T12Z_MSC_RDPS_WindU_IsbL-0450_RLatLon0.09_PT027H.grib2 2026-04-10 14:54 464K
20260410T12Z_MSC_RDPS_WindU_IsbL-0500_RLatLon0.09_PT027H.grib2 2026-04-10 14:54 466K
20260410T12Z_MSC_RDPS_WindU_IsbL-0550_RLatLon0.09_PT027H.grib2 2026-04-10 14:54 469K
20260410T12Z_MSC_RDPS_WindU_IsbL-0600_RLatLon0.09_PT027H.grib2 2026-04-10 14:54 480K
20260410T12Z_MSC_RDPS_WindU_IsbL-0650_RLatLon0.09_PT027H.grib2 2026-04-10 14:54 498K
20260410T12Z_MSC_RDPS_WindU_IsbL-0700_RLatLon0.09_PT027H.grib2 2026-04-10 14:54 504K
20260410T12Z_MSC_RDPS_WindU_IsbL-0750_RLatLon0.09_PT027H.grib2 2026-04-10 14:54 533K
20260410T12Z_MSC_RDPS_WindU_IsbL-0800_RLatLon0.09_PT027H.grib2 2026-04-10 14:54 578K
20260410T12Z_MSC_RDPS_WindU_IsbL-0850_RLatLon0.09_PT027H.grib2 2026-04-10 14:54 632K
20260410T12Z_MSC_RDPS_WindU_IsbL-0875_RLatLon0.09_PT027H.grib2 2026-04-10 14:54 648K
20260410T12Z_MSC_RDPS_WindU_IsbL-0900_RLatLon0.09_PT027H.grib2 2026-04-10 14:54 656K
20260410T12Z_MSC_RDPS_WindU_IsbL-0925_RLatLon0.09_PT027H.grib2 2026-04-10 14:54 664K
20260410T12Z_MSC_RDPS_WindU_IsbL-0950_RLatLon0.09_PT027H.grib2 2026-04-10 14:54 662K
20260410T12Z_MSC_RDPS_WindU_IsbL-0970_RLatLon0.09_PT027H.grib2 2026-04-10 14:54 659K
20260410T12Z_MSC_RDPS_WindU_IsbL-0985_RLatLon0.09_PT027H.grib2 2026-04-10 14:54 795K
20260410T12Z_MSC_RDPS_WindU_IsbL-1000_RLatLon0.09_PT027H.grib2 2026-04-10 14:54 790K
20260410T12Z_MSC_RDPS_WindU_IsbL-1015_RLatLon0.09_PT027H.grib2 2026-04-10 14:54 782K
20260410T12Z_MSC_RDPS_WindV_AGL-10m_RLatLon0.09_PT027H.grib2 2026-04-10 14:54 433K
20260410T12Z_MSC_RDPS_WindV_AGL-120m_RLatLon0.09_PT027H.grib2 2026-04-10 14:54 419K
20260410T12Z_MSC_RDPS_WindV_AGL-40m_RLatLon0.09_PT027H.grib2 2026-04-10 14:54 537K
20260410T12Z_MSC_RDPS_WindV_AGL-80m_RLatLon0.09_PT027H.grib2 2026-04-10 14:54 420K
20260410T12Z_MSC_RDPS_WindV_IsbL-0001_RLatLon0.09_PT027H.grib2 2026-04-10 14:54 252K
20260410T12Z_MSC_RDPS_WindV_IsbL-0005_RLatLon0.09_PT027H.grib2 2026-04-10 14:54 276K
20260410T12Z_MSC_RDPS_WindV_IsbL-0010_RLatLon0.09_PT027H.grib2 2026-04-10 14:54 319K
20260410T12Z_MSC_RDPS_WindV_IsbL-0020_RLatLon0.09_PT027H.grib2 2026-04-10 14:54 374K
20260410T12Z_MSC_RDPS_WindV_IsbL-0030_RLatLon0.09_PT027H.grib2 2026-04-10 14:54 375K
20260410T12Z_MSC_RDPS_WindV_IsbL-0050_RLatLon0.09_PT027H.grib2 2026-04-10 14:54 367K
20260410T12Z_MSC_RDPS_WindV_IsbL-0100_RLatLon0.09_PT027H.grib2 2026-04-10 14:54 336K
20260410T12Z_MSC_RDPS_WindV_IsbL-0150_RLatLon0.09_PT027H.grib2 2026-04-10 14:54 382K
20260410T12Z_MSC_RDPS_WindV_IsbL-0175_RLatLon0.09_PT027H.grib2 2026-04-10 14:54 408K
20260410T12Z_MSC_RDPS_WindV_IsbL-0200_RLatLon0.09_PT027H.grib2 2026-04-10 14:54 329K
20260410T12Z_MSC_RDPS_WindV_IsbL-0225_RLatLon0.09_PT027H.grib2 2026-04-10 14:54 333K
20260410T12Z_MSC_RDPS_WindV_IsbL-0250_RLatLon0.09_PT027H.grib2 2026-04-10 14:54 334K
20260410T12Z_MSC_RDPS_WindV_IsbL-0275_RLatLon0.09_PT027H.grib2 2026-04-10 14:54 347K
20260410T12Z_MSC_RDPS_WindV_IsbL-0300_RLatLon0.09_PT027H.grib2 2026-04-10 14:54 343K
20260410T12Z_MSC_RDPS_WindV_IsbL-0350_RLatLon0.09_PT027H.grib2 2026-04-10 14:54 351K
20260410T12Z_MSC_RDPS_WindV_IsbL-0400_RLatLon0.09_PT027H.grib2 2026-04-10 14:54 355K
20260410T12Z_MSC_RDPS_WindV_IsbL-0450_RLatLon0.09_PT027H.grib2 2026-04-10 14:54 459K
20260410T12Z_MSC_RDPS_WindV_IsbL-0500_RLatLon0.09_PT027H.grib2 2026-04-10 14:54 461K
20260410T12Z_MSC_RDPS_WindV_IsbL-0550_RLatLon0.09_PT027H.grib2 2026-04-10 14:54 464K
20260410T12Z_MSC_RDPS_WindV_IsbL-0600_RLatLon0.09_PT027H.grib2 2026-04-10 14:54 475K
20260410T12Z_MSC_RDPS_WindV_IsbL-0650_RLatLon0.09_PT027H.grib2 2026-04-10 14:54 493K
20260410T12Z_MSC_RDPS_WindV_IsbL-0700_RLatLon0.09_PT027H.grib2 2026-04-10 14:54 499K
20260410T12Z_MSC_RDPS_WindV_IsbL-0750_RLatLon0.09_PT027H.grib2 2026-04-10 14:54 527K
20260410T12Z_MSC_RDPS_WindV_IsbL-0800_RLatLon0.09_PT027H.grib2 2026-04-10 14:54 574K
20260410T12Z_MSC_RDPS_WindV_IsbL-0850_RLatLon0.09_PT027H.grib2 2026-04-10 14:54 629K
20260410T12Z_MSC_RDPS_WindV_IsbL-0875_RLatLon0.09_PT027H.grib2 2026-04-10 14:54 646K
20260410T12Z_MSC_RDPS_WindV_IsbL-0900_RLatLon0.09_PT027H.grib2 2026-04-10 14:54 654K
20260410T12Z_MSC_RDPS_WindV_IsbL-0925_RLatLon0.09_PT027H.grib2 2026-04-10 14:54 661K
20260410T12Z_MSC_RDPS_WindV_IsbL-0950_RLatLon0.09_PT027H.grib2 2026-04-10 14:54 660K
20260410T12Z_MSC_RDPS_WindV_IsbL-0970_RLatLon0.09_PT027H.grib2 2026-04-10 14:54 658K
20260410T12Z_MSC_RDPS_WindV_IsbL-0985_RLatLon0.09_PT027H.grib2 2026-04-10 14:54 653K
20260410T12Z_MSC_RDPS_WindV_IsbL-1000_RLatLon0.09_PT027H.grib2 2026-04-10 14:54 790K
20260410T12Z_MSC_RDPS_WindV_IsbL-1015_RLatLon0.09_PT027H.grib2 2026-04-10 14:54 783K